Onweer van: 25-07-2021 11:00 tot: 20:00 waarschuwing voor: Onweer niveau: Geel info button


waarschuwing voor Onweer Meer informatie blitzortung!


Regen radar Meer informatie rain snow radar


Bezoek onze andere website:

Template documentation
and downloads

And another site



15 daagse weersverwachting Jönköping (SE)

  • Overzicht
  • Per uur
  • 15 dagen
  • Extra
  • Vergelijk
  • Kaarten
  • Dagkaart
  • Meer »
  • Info
  • Statistieken
  • Directe link
    Temp 6h Neerslag Wind  
 04:47     21:34    Daglengte: 16:47 Vandaag
08:00
18°
 
2
14:00
24°
 
3
20:00
23°
 
4
 04:49     21:32    Daglengte: 16:43 Morgen
02:00
17°
 
3
08:00
20°
 
3
14:00
25°
 
4
20:00
25°
 
4
 04:51     21:30    Daglengte: 16:39 Dinsdag 27 Jul
02:00
20°
0.6 mm
4
08:00
20°
0.6 mm
1
14:00
21°
13.4 mm
3
20:00
20°
3.2 mm
3
 04:53     21:28    Daglengte: 16:35 Woensdag 28 Jul
02:00
16°
 
3
Locatie info
Region: Jönköpings län
Latitude: 57.7798°N
Longitude: 14.1765°E
100 masl
Postcode: 553 22
Temp/Neerslag /Baro Onweer/Dauwpunt
    Temp Baro 1h Neerslag Dauwpunt Wind UV Bewolking  
 04:47     21:34    Daglengte: 16:47 Vandaag
06:00
15°
1016.8 hPa   13.3°
2
Windvlaag: 4.9 m/s
0%
07:00
16°
1016.9 hPa   14.0°
2
Windvlaag: 3.6 m/s
0%
08:00
18°
1016.8 hPa   14.3°
2
Windvlaag: 3.9 m/s
12%
09:00
19°
1016.8 hPa   13.6°
2
Windvlaag: 4.4 m/s
37%
10:00
21°
1016.8 hPa   12.7°
3
Windvlaag: 4.1 m/s
44%
11:00
22°
1016.8 hPa   12.1°
3
Windvlaag: 4.9 m/s
50%
12:00
23°
1016.6 hPa   11.0°
3
Windvlaag: 5.7 m/s
52%
13:00
24°
1016.4 hPa   10.5°
4
Windvlaag: 6.4 m/s
29%
14:00
24°
1015.9 hPa   10.2°
3
Windvlaag: 6.5 m/s
51%
15:00
25°
1015.7 hPa   10.7°
3
Windvlaag: 6.5 m/s
35%
16:00
25°
1015.4 hPa   11.7°
3
Windvlaag: 6.3 m/s
36%
17:00
25°
1015.1 hPa   11.6°
4
Windvlaag: 6 m/s
61%
18:00
25°
1014.9 hPa   11.5°
4
Windvlaag: 5.9 m/s
59%
19:00
24°
1014.9 hPa   12.2°
4
Windvlaag: 5.7 m/s
55%
20:00
23°
1015.2 hPa   13.0°
4
Windvlaag: 5.5 m/s
59%
21:00
22°
1015.6 hPa   13.5°
3
Windvlaag: 5.8 m/s
65%
22:00
20°
1016.1 hPa   13.9°
3
Windvlaag: 6.1 m/s
35%
23:00
19°
1016.4 hPa   14.4°
3
Windvlaag: 5.8 m/s
18%
 04:49     21:32    Daglengte: 16:43 Morgen
00:00
19°
1016.6 hPa   14.8°
3
Windvlaag: 5.6 m/s
45%
01:00
18°
1016.6 hPa   15.2°
3
Windvlaag: 5.6 m/s
43%
02:00
17°
1016.4 hPa   15.1°
3
Windvlaag: 5.8 m/s
52%
03:00
17°
1016.2 hPa   14.7°
3
Windvlaag: 6.1 m/s
43%
04:00
17°
1016.1 hPa   14.4°
3
Windvlaag: 5.8 m/s
50%
05:00
17°
1015.8 hPa   14.8°
3
Windvlaag: 5.2 m/s
50%
06:00
17°
1015.6 hPa   15.0°
2
Windvlaag: 4.6 m/s
47%
07:00
18°
1015.5 hPa   15.7°
2
Windvlaag: 4 m/s
47%
08:00
20°
1015.3 hPa   16.0°
3
Windvlaag: 2.4 m/s
62%
09:00
21°
1015.3 hPa   16.5°
3
Windvlaag: 2.7 m/s
66%
10:00
23°
1015.0 hPa   16.5°
3
Windvlaag: 4.5 m/s
50%
11:00
25°
1014.8 hPa   16.9°
5
Windvlaag: 5.6 m/s
49%
12:00
26°
1014.5 hPa
51%
17.0°
5
Windvlaag: 6.5 m/s
51%
13:00
26°
1014.2 hPa
27%
17.8°
5
Windvlaag: 8.2 m/s
41%
14:00
25°
1013.8 hPa
27%
19.5°
4
Windvlaag: 8 m/s
34%
15:00
25°
1013.4 hPa
75%
19.9°
5
Windvlaag: 9.9 m/s
51%
16:00
26°
1013.2 hPa
74%
17.1°
5
Windvlaag: 9.3 m/s
70%
17:00
26°
1012.9 hPa
74%
16.1°
5
Windvlaag: 7.3 m/s
69%
18:00
26°
1012.6 hPa
80%
14.2°
4
Windvlaag: 5.9 m/s
52%
19:00
26°
1012.5 hPa
75%
14.1°
4
Windvlaag: 2.9 m/s
54%
20:00
25°
1012.4 hPa
21%
14.6°
4
Windvlaag: 2.8 m/s
56%
21:00
23°
1012.5 hPa
14%
15.8°
4
Windvlaag: 3.5 m/s
61%
22:00
22°
1012.5 hPa
14%
16.0°
4
Windvlaag: 4.8 m/s
52%
23:00
21°
1012.1 hPa
21%
19.7°
5
Windvlaag: 5.3 m/s
45%
 04:51     21:30    Daglengte: 16:39 Dinsdag 27 Jul
00:00
21°
1012.0 hPa 0.6 mm
21%
19.6°
5
Windvlaag: 5.2 m/s
92%
01:00
21°
1011.6 hPa
21%
19.4°
4
Windvlaag: 4.6 m/s
94%
02:00
20°
1011.2 hPa
21%
19.7°
4
Windvlaag: 4.5 m/s
61%
03:00
20°
1011.0 hPa
21%
19.3°
4
Windvlaag: 4.4 m/s
79%
04:00
20°
1010.6 hPa
21%
19.2°
2
Windvlaag: 3.9 m/s
95%
05:00
19°
1010.2 hPa
24%
19.0°
2
Windvlaag: 1.7 m/s
97%
06:00
19°
1009.8 hPa
21%
19.2°
2
Windvlaag: 1.8 m/s
85%
07:00
20°
1009.5 hPa
30%
19.6°
2
Windvlaag: 2.8 m/s
98%
08:00
20°
1009.3 hPa 0.6 mm
89%
19.6°
1
Windvlaag: 3.3 m/s
99%
09:00
20°
1008.8 hPa 1.5 mm
100%
17.6°
2
Windvlaag: 5.7 m/s
96%
10:00
20°
1008.6 hPa 1.4 mm
100%
15.9°
2
Windvlaag: 6 m/s
94%
11:00
20°
1008.2 hPa 2.2 mm
100%
13.7°
2
Windvlaag: 6.6 m/s
97%
12:00
21°
1008.0 hPa 3.9 mm
100%
13.8°
2
Windvlaag: 7.6 m/s
91% warningclass
13:00
21°
1007.8 hPa 1.8 mm
100%
13.8°
3
Windvlaag: 8.1 m/s
100% warningclass
14:00
21°
1007.9 hPa 2.5 mm
100%
13.3°
3
Windvlaag: 8 m/s
76%
15:00
21°
1007.8 hPa 1.1 mm
100%
13.5°
3
Windvlaag: 7.9 m/s
70%
16:00
22°
1007.9 hPa 0.7 mm
100%
13.1°
4
Windvlaag: 8.1 m/s
33%
17:00
22°
1007.9 hPa 0.8 mm
100%
12.4°
4
Windvlaag: 8.2 m/s
21%
18:00
21°
1008.0 hPa 0.6 mm
97%
11.7°
4
Windvlaag: 8.1 m/s
14%
19:00
21°
1008.0 hPa
79%
12.3°
4
Windvlaag: 7.3 m/s
31%
20:00
20°
1008.3 hPa
21%
13.3°
3
Windvlaag: 6.8 m/s
5%
21:00
19°
1008.8 hPa
21%
14.8°
3
Windvlaag: 6.7 m/s
19%
22:00
18°
1009.4 hPa
21%
14.7°
3
Windvlaag: 6.8 m/s
42%
23:00
17°
1009.5 hPa
21%
14.7°
3
Windvlaag: 7.6 m/s
25%
 04:53     21:28    Daglengte: 16:35 Woensdag 28 Jul
00:00
17°
1010.0 hPa
21%
14.9°
3
Windvlaag: 7.4 m/s
59%
01:00
17°
1009.8 hPa
23%
14.9°
3
Windvlaag: 6.8 m/s
55%
02:00
16°
1009.9 hPa
21%
15.1°
3
Windvlaag: 6.9 m/s
60%
Temp/Neerslag /Baro Onweer/Dauwpunt
    Temp Baro Neerslag Dauwpunt Wind Bewolking  
 04:47     21:34    Daglengte: 16:47 Vandaag
08:00
18°
1016.8 hPa   14.3°
2
12%
11:00
22°
1016.8 hPa   12.1°
3
50%
14:00
24°
1015.9 hPa   10.2°
3
51%
17:00
25°
1015.1 hPa   11.6°
4
61%
20:00
23°
1015.2 hPa   13.0°
4
59%
23:00
19°
1016.4 hPa   14.4°
3
18%
 04:49     21:32    Daglengte: 16:43 Morgen
02:00
17°
1016.4 hPa   15.1°
3
52%
05:00
17°
1015.8 hPa   14.8°
3
50%
08:00
20°
1015.3 hPa   16.0°
3
62%
11:00
25°
1014.8 hPa   16.9°
5
49%
14:00
25°
1013.8 hPa   19.5°
4
34%
17:00
26°
1012.9 hPa   16.1°
5
69%
20:00
25°
1012.4 hPa   14.6°
4
56%
23:00
21°
1012.1 hPa   19.7°
5
45%
 04:51     21:30    Daglengte: 16:39 Dinsdag 27 Jul
02:00
20°
1011.2 hPa 0.6 mm 19.7°
4
61%
05:00
19°
1010.2 hPa   19.0°
2
97%
08:00
20°
1009.3 hPa 0.6 mm 19.6°
1
99%
11:00
20°
1008.2 hPa 5.1 mm 13.7°
2
97%
14:00
21°
1007.9 hPa 8.3 mm 13.3°
3
76%
17:00
22°
1007.9 hPa 2.6 mm 12.4°
4
21%
20:00
20°
1008.3 hPa 0.6 mm 13.3°
3
5%
23:00
17°
1009.5 hPa   14.7°
3
25%
 04:53     21:28    Daglengte: 16:35 Woensdag 28 Jul
02:00
16°
1009.9 hPa   15.1°
3
60%
05:00
15°
1008.4 hPa 30.1 mm 14.2°
2
0%
08:00
18°
1008.1 hPa 30.1 mm 16.2°
3
0%
11:00
22°
1007.2 hPa 30.1 mm 14.3°
3
1%
14:00
23°
1006.3 hPa 30.3 mm 15.9°
4
1%
17:00
19°
1006.6 hPa 31.7 mm 16.4°
3
1%
20:00
19°
1005.9 hPa 32.4 mm 16.1°
4
1%
23:00
16°
1006.4 hPa 32.4 mm 14.8°
4
0%
 04:55     21:26    Daglengte: 16:31 Donderdag 29 Jul
02:00
15°
1006.4 hPa 32.4 mm 14.7°
5
0%
05:00
15°
1006.5 hPa 32.5 mm 13.4°
5
1%
08:00
16°
1006.7 hPa 32.5 mm 13.1°
5
1%
11:00
20°
1006.7 hPa 32.5 mm 9.7°
6
0%
14:00
22°
1005.7 hPa 32.5 mm 9.1°
6
0%
17:00
21°
1005.6 hPa 32.5 mm 11.6°
6
0%
20:00
19°
1004.9 hPa 32.5 mm 10.9°
4
1%
23:00
16°
1004.4 hPa 32.5 mm 12.0°
4
1%
 04:57     21:24    Daglengte: 16:27 Vrijdag 30 Jul
02:00
15°
1002.9 hPa 32.5 mm 12.6°
4
1%
05:00
15°
1000.8 hPa 32.8 mm 13.4°
5
1%
08:00
15°
1000.8 hPa 34.2 mm 12.8°
6
1%
11:00
19°
1000.4 hPa 34.3 mm 8.0°
8
0%
14:00
19°
1000.4 hPa 34.4 mm 10.1°
9
0%
17:00
18°
1000.3 hPa 34.9 mm 9.2°
8
0%
20:00
16°
999.6 hPa 35.2 mm 10.0°
6
1%
23:00
14°
999.1 hPa 35.5 mm 11.7°
6
1%
 04:59     21:21    Daglengte: 16:22 Zaterdag 31 Jul
02:00
13°
999.1 hPa 35.7 mm 11.4°
7
1%
05:00
14°
999.0 hPa 35.7 mm 10.7°
7
1%
08:00
15°
999.6 hPa 35.8 mm 11.5°
6
1%
11:00
18°
1000.4 hPa 36.1 mm 10.4°
6
1%
14:00
20°
1000.1 hPa 36.1 mm 8.7°
6
1%
17:00
20°
1000.0 hPa 36.1 mm 9.5°
4
1%
20:00
15°
1000.3 hPa 37.0 mm 13.6°
5
1%
23:00
14°
1000.5 hPa 41.2 mm 12.8°
4
1%
 05:01     21:19    Daglengte: 16:18 Zondag 01 Aug
02:00
13°
1001.1 hPa 42.6 mm 11.5°
3
1%
05:00
11°
1001.7 hPa   10.1°
3
1%
08:00
14°
1002.4 hPa 85.2 mm 11.2°
4
1%
14:00
19°
1003.2 hPa 86.0 mm 6.5°
6
1%
20:00
16°
1005.1 hPa 86.4 mm 9.7°
6
1%
 05:03     21:17    Daglengte: 16:14 Maandag 02 Aug
02:00
13°
1007.0 hPa 86.4 mm 9.4°
4
1%
08:00
14°
1008.0 hPa 86.4 mm 9.3°
3
1%
14:00
19°
1008.1 hPa 86.4 mm 5.9°
1
1%
20:00
15°
1009.3 hPa 88.4 mm 11.5°
2
1%
 05:05     21:15    Daglengte: 16:10 Dinsdag 03 Aug
02:00
12°
1010.9 hPa 91.8 mm 10.7°
1
1%
14:00
20°
1013.0 hPa 140.8 mm 9.2°
3
0%
20:00
18°
1013.2 hPa 94.0 mm 9.8°
1
1%
 05:07     21:13    Daglengte: 16:06 Woensdag 04 Aug
02:00
12°
1005.7 hPa 0.7 mm 10.5°
1
57%
08:00
14°
1006.0 hPa 0.5 mm 11.6°
1
57%
14:00
20°
1006.0 hPa 1.3 mm 11.9°
1
63%
20:00
17°
1006.7 hPa 1.9 mm 12.3°
1
75%
 05:10     21:10    Daglengte: 16:00 Donderdag 05 Aug
02:00
12°
1008.1 hPa 0.2 mm 10.8°
1
50%
08:00
15°
1008.5 hPa 0.3 mm 11.9°
1
57%
14:00
20°
1008.5 hPa 1.3 mm 12.5°
1
63%
20:00
17°
1008.8 hPa 1.2 mm 12.5°
1
60%
 05:12     21:08    Daglengte: 15:56 Vrijdag 06 Aug
02:00
12°
1009.8 hPa 0.1 mm 11.2°
1
55%
08:00
15°
1010.0 hPa 0.3 mm 12.2°
1
63%
14:00
21°
1009.5 hPa 1.4 mm 12.9°
2
62%
20:00
17°
1009.5 hPa 1.9 mm 13.2°
2
72%
 05:14     21:06    Daglengte: 15:52 Zaterdag 07 Aug
02:00
12°
1010.1 hPa 0.3 mm 11.8°
1
61%
08:00
15°
1009.7 hPa 0.7 mm 12.6°
1
70%
14:00
20°
1009.1 hPa 1.6 mm 12.9°
2
69%
20:00
17°
1008.8 hPa 1.6 mm 13.4°
1
68%
 05:16     21:03    Daglengte: 15:47 Zondag 08 Aug
02:00
13°
1009.0 hPa 0.5 mm 12.4°
1
61%
08:00
15°
1008.7 hPa 1.4 mm 13.2°
1
76%
14:00
21°
1008.6 hPa 1.8 mm 13.5°
2
72%
20:00
17°
1008.7 hPa 1.9 mm 13.6°
1
72%
 05:18     21:01    Daglengte: 15:43 Maandag 09 Aug
02:00
14°
1009.2 hPa 0.6 mm 12.5°
2
66%
08:00
15°
1009.1 hPa 1.3 mm 13.4°
2
69%
  CAPE Lifted Index Hail Supercell Tornado SRH 3km CL BTM PRES CL TOP PRES Swiss DWD icon SMHI TS
 04:47     21:34    Daglengte: 16:47 Vandaag
06:00 0 J/kg 5.9 K 0 % 0 % 0 % 0 m²/s² 0 0 9.77 45
07:00 0 J/kg 6.3 K 0 % 0 % 0 % 0 m²/s² 0 0 10.5 0
08:00 0 J/kg 4.9 K 0 % 0 % 0 % 0 m²/s² 0 0 9.46 2
09:00 0 J/kg 4.2 K 0 % 0 % 0 % 0 m²/s² 0 0 8.76 3
10:00 0 J/kg 3.5 K 0 % 0 % 0 % 0 m²/s² 0 0 8.06 3
11:00 0 J/kg 3.0 K 0 % 0 % 0 % 0 m²/s² 0 0 7.68 3
12:00 0 J/kg 2.9 K 0 % 0 % 0 % 0 m²/s² 0 0 7.46 3
13:00 0 J/kg 2.5 K 0 % 0 % 0 % 0 m²/s² 0 0 6.94 3
14:00 0 J/kg 3.0 K 0 % 0 % 0 % 0 m²/s² 0 0 7.32 3
15:00 0 J/kg 2.8 K 0 % 0 % 0 % 0 m²/s² 0 0 7.03 3
16:00 0 J/kg 2.2 K 0 % 0 % 0 % 0 m²/s² 0 0 6.43 3
17:00 0 J/kg 1.5 K 0 % 0 % 0 % 0 m²/s² 0 0 5.82 3
18:00 0 J/kg 1.9 K 0 % 0 % 0 % 0 m²/s² 0 0 6.46 3
19:00 0 J/kg 2.3 K 0 % 0 % 0 % 0 m²/s² 0 0 7.25 3
20:00 0 J/kg 2.3 K 0 % 0 % 0 % 0 m²/s² 0 0 7.67 3
21:00 0 J/kg 2.7 K 0 % 0 % 0 % 0 m²/s² 0 0 8.34 3
22:00 0 J/kg 2.9 K 0 % 0 % 0 % 0 m²/s² 0 0 8.39 2
23:00 0 J/kg 2.9 K 0 % 0 % 0 % 0 m²/s² 0 0 8.39 2
 04:49     21:32    Daglengte: 16:43 Morgen
00:00 0 J/kg 3.4 K 0 % 0 % 0 % 0 m²/s² 0 0 8.89 3
01:00 0 J/kg 4.1 K 0 % 0 % 0 % 0 m²/s² 0 0 9.89 3
02:00 0 J/kg 3.5 K 0 % 0 % 0 % 0 m²/s² 0 0 9.14 3
03:00 0 J/kg 2.0 K 0 % 0 % 0 % 0 m²/s² 0 0 7.19 3
04:00 0 J/kg 0.8 K 0 % 0 % 0 % 0 m²/s² 0 0 5.75 3
05:00 0 J/kg 0.2 K 0 % 0 % 0 % 0 m²/s² 0 0 4.88 3
06:00 0 J/kg 0.1 K 0 % 0 % 0 % 0 m²/s² 0 0 4.66 3
07:00 0 J/kg -0.4 K 0 % 0 % 0 % 0 m²/s² 0 0 3.83 3
08:00 0 J/kg -0.7 K 0 % 0 % 0 % 0 m²/s² 0 0 3.02 3
09:00 35 J/kg -0.3 K 0 % 0 % 0 % 0 m²/s² 0 0 3.03 3
10:00 264 J/kg -1.1 K 0 % 0 % 0 % 0 m²/s² 0 0 1.33 3
11:00 427 J/kg -1.5 K 0 % 0 % 0 % 0 m²/s² 0 0 0.03 3
12:00 425 J/kg -1.2 K 0 % 0 % 0 % 0 m²/s² 0 0 -0.72 3
13:00 208 J/kg -0.4 K 0 % 0 % 0 % 0 m²/s² 0 0 -0.4 3
14:00 44 J/kg 0.1 K 0 % 0 % 0 % 0 m²/s² 0 0 0.1 3
15:00 69 J/kg 0.3 K 0 % 0 % 0 % 0 m²/s² 0 0 0.39 3
16:00 292 J/kg -0.9 K 0 % 0 % 0 % 0 m²/s² 0 0 -0 3
17:00 307 J/kg -1.5 K 0 % 0 % 0 % 0 m²/s² 0 0 0.72 3
18:00 543 J/kg -2.4 K 0 % 0 % 0 % 0 m²/s² 0 0 0.57 3
19:00 1005 J/kg -3.6 K 0 % 0 % 0 % 0 m²/s² 0 0 -1.32 3
20:00 832 J/kg -3.2 K 0 % 0 % 0 % 0 m²/s² 0 0 -0.98 3
21:00 692 J/kg -3.2 K 0 % 0 % 0 % 0 m²/s² 0 0 -1.07 3
22:00 480 J/kg -3.5 K 0 % 0 % 0 % 0 m²/s² 0 0 -1.37 3
23:00 199 J/kg -3.6 K 0 % 0 % 0 % 0 m²/s² 0 0 -1.8 2
 04:51     21:30    Daglengte: 16:39 Dinsdag 27 Jul
00:00 166 J/kg -3.2 K 0 % 0 % 0 % 0 m²/s² 0 0 -1.76 3
01:00 300 J/kg -3.1 K 0 % 0 % 0 % 0 m²/s² 0 0 -2.02 3
02:00 392 J/kg -3.1 K 0 % 0 % 0 % 0 m²/s² 0 0 -1.87 3
03:00 449 J/kg -3.2 K 0 % 0 % 0 % 0 m²/s² 0 0 -1.58 3
04:00 581 J/kg -3.5 K 0 % 0 % 0 % 0 m²/s² 0 0 -2.18 3
05:00 547 J/kg -2.7 K 0 % 0 % 0 % 0 m²/s² 0 0 -0.78 3
06:00 292 J/kg -3.2 K 0 % 0 % 0 % 0 m²/s² 0 0 -0.65 2
07:00 386 J/kg -2.7 K 0 % 0 % 0 % 0 m²/s² 0 0 -0.66 3
08:00 502 J/kg -2.7 K 0 % 0 % 0 % 0 m²/s² 0 0 -0.39 61
09:00 857 J/kg -2.9 K 0 % 0 % 0 % 0 m²/s² 0 0 -0.65 61
10:00 1047 J/kg -3.6 K 0 % 0 % 0 % 0 m²/s² 0 0 -1.44 80
11:00 816 J/kg -3.3 K 0 % 0 % 0 % 0 m²/s² 0 0 -0.78 61
12:00 960 J/kg -3.8 K 0 % 0 % 0 % 0 m²/s² 0 0 -1.28 95
13:00 981 J/kg -3.7 K 0 % 0 % 0 % 0 m²/s² 0 0 -1.87 95
14:00 882 J/kg -3.4 K 0 % 0 % 0 % 0 m²/s² 0 0 -1.81 80
15:00 830 J/kg -3.2 K 0 % 0 % 0 % 0 m²/s² 0 0 -0.38 80
16:00 502 J/kg -1.9 K 0 % 0 % 0 % 0 m²/s² 0 0 2.3 3
17:00 120 J/kg -0.4 K 0 % 0 % 0 % 0 m²/s² 0 0 4.91 80
18:00 4 J/kg 0.8 K 0 % 0 % 0 % 0 m²/s² 0 0 5.48 2
19:00 8 J/kg 0.7 K 0 % 0 % 0 % 0 m²/s² 0 0 6.01 2
20:00 29 J/kg 0.3 K 0 % 0 % 0 % 0 m²/s² 0 0 3.81 2
21:00 23 J/kg 0.2 K 0 % 0 % 0 % 0 m²/s² 0 0 2.15 2
22:00 24 J/kg 0.1 K 0 % 0 % 0 % 0 m²/s² 0 0 2.32 2
23:00 6 J/kg 0.0 K 0 % 0 % 0 % 0 m²/s² 0 0 2.1 2
 04:53     21:28    Daglengte: 16:35 Woensdag 28 Jul
00:00 41 J/kg -0.5 K 0 % 0 % 0 % 0 m²/s² 0 0 1.51 2
01:00 54 J/kg -0.2 K 0 % 0 % 0 % 0 m²/s² 0 0 2.32 2
02:00 59 J/kg 0.0 K 0 % 0 % 0 % 0 m²/s² 0 0 2.82 2
Temp Baro Wind Neerslag
  EWN Forecast EWN WRFDA DWD ICON FMI HIRLAM MET Norway GFS
 04:47     21:34    Daglengte: 16:47 Vandaag
08:00 17.8° 1016.8 hPa 1.9 m/s 0.0 mm 18.2° 1016.0 hPa 2.7 m/s 0.0 mm 17.7° 1016.8 hPa 1.8 m/s 0.0 mm 17.0° 1017.3 hPa 2.3 m/s 0.0 mm 18.4° 1016.9 hPa 2.7 m/s
11:00 21.8° 1016.8 hPa 3.2 m/s 0.0 mm 22.0° 1016.0 hPa 3.9 m/s 0.0 mm 21.2° 1016.5 hPa 2.6 m/s 0.0 mm 22.1° 1017.1 hPa 3.4 m/s 0.0 mm 23.3° 1016.4 hPa 3.3 m/s
14:00 24.4° 1015.9 hPa 3.4 m/s 0.0 mm 23.8° 1015.1 hPa 4.4 m/s 0.0 mm 24.6° 1015.7 hPa 2.9 m/s 0.0 mm 25.3° 1016.5 hPa 3.2 m/s 0.0 mm 25.9° 1015.5 hPa 3.3 m/s
17:00 25.0° 1015.1 hPa 3.6 m/s 0.0 mm 24.1° 1014.7 hPa 4.3 m/s 0.0 mm 25.3° 1015.1 hPa 3.0 m/s 0.0 mm 25.9° 1015.5 hPa 3.5 m/s 0.0 mm 26.3° 1014.7 hPa 3.9 m/s
20:00 23.0° 1015.2 hPa 3.7 m/s 0.0 mm 21.9° 1014.3 hPa 3.9 m/s 0.0 mm 22.8° 1015.1 hPa 2.6 m/s 0.0 mm 23.1° 1015.7 hPa 3.6 m/s 0.0 mm 22.5° 1015.1 hPa 4.6 m/s
23:00 19.4° 1016.4 hPa 2.8 m/s 0.0 mm 17.5° 1014.8 hPa 5.0 m/s 0.0 mm 17.8° 1016.5 hPa 1.9 m/s 0.0 mm 19.3° 1017.0 hPa 2.3 m/s 0.0 mm 18.2° 1016.1 hPa 3.6 m/s
 04:49     21:32    Daglengte: 16:43 Morgen
02:00 17.1° 1016.4 hPa 2.5 m/s 0.0 mm 17.5° 1014.5 hPa 5.2 m/s 0.0 mm 15.7° 1016.5 hPa 1.2 m/s 0.0 mm 16.6° 1016.6 hPa 2.0 m/s 0.0 mm 17.2° 1016.2 hPa 3.4 m/s
05:00 17.1° 1015.8 hPa 2.8 m/s 0.0 mm 16.7° 1013.8 hPa 6.1 m/s 0.0 mm 15.1° 1016.1 hPa 1.4 m/s 0.0 mm 17.0° 1016.0 hPa 2.6 m/s 0.0 mm 16.8° 1015.7 hPa 3.3 m/s
08:00 19.6° 1015.3 hPa 2.5 m/s 0.0 mm 20.3° 1013.1 hPa 5.8 m/s 0.0 mm 19.2° 1015.6 hPa 2.2 m/s 0.0 mm 19.2° 1015.2 hPa 2.3 m/s 0.0 mm 19.2° 1015.2 hPa 3.9 m/s
11:00 24.9° 1014.8 hPa 4.5 m/s 0.0 mm 23.8° 1012.6 hPa 6.3 m/s 0.0 mm 25.1° 1014.8 hPa 3.6 m/s 0.0 mm 25.4° 1015.2 hPa 4.1 m/s 0.0 mm 25.2° 1014.8 hPa 3.9 m/s
14:00 24.7° 1013.8 hPa 4.5 m/s 0.0 mm 19.3° 1012.1 hPa 6.1 m/s 2.4 mm 27.8° 1013.1 hPa 3.9 m/s 0.0 mm 24.8° 1014.1 hPa 4.0 m/s 0.0 mm 27.2° 1013.7 hPa 3.8 m/s
17:00 26.0° 1012.9 hPa 4.6 m/s 0.0 mm 22.7° 1009.5 hPa 7.5 m/s 4.5 mm 27.6° 1012.2 hPa 3.4 m/s 0.1 mm 26.6° 1013.3 hPa 5.0 m/s 0.0 mm 20.0° 1014.7 hPa 1.8 m/s
20:00 24.9° 1012.4 hPa 3.5 m/s 0.0 mm 23.2° 1008.4 hPa 5.4 m/s 4.5 mm 25.4° 1011.9 hPa 3.0 m/s 0.1 mm 25.4° 1013.0 hPa 4.4 m/s 0.0 mm 20.4° 1013.4 hPa 2.8 m/s
23:00 21.3° 1012.1 hPa 5.0 m/s 0.0 mm 19.8° 1008.6 hPa 6.9 m/s 4.5 mm 21.1° 1012.5 hPa 2.9 m/s 0.0 mm 18.8° 1014.0 hPa 2.8 m/s
 04:51     21:30    Daglengte: 16:39 Dinsdag 27 Jul
02:00 20.4° 1011.2 hPa 3.7 m/s 0.6 mm 19.2° 1007.4 hPa 3.6 m/s 4.5 mm 20.0° 1011.4 hPa 2.6 m/s 0.0 mm 17.0° 1013.6 hPa 2.5 m/s
05:00 19.3° 1010.2 hPa 2.4 m/s 0.0 mm 18.2° 1007.0 hPa 2.7 m/s 4.5 mm 18.9° 1010.3 hPa 1.1 m/s 0.0 mm 17.2° 1011.8 hPa 2.9 m/s
08:00 19.9° 1009.3 hPa 1.3 m/s 0.6 mm 18.7° 1006.9 hPa 3.4 m/s 4.5 mm 19.8° 1009.2 hPa 0.8 m/s 0.2 mm 17.9° 1011.2 hPa 1.3 m/s
11:00 20.4° 1008.2 hPa 1.7 m/s 5.1 mm 23.9° 1006.9 hPa 3.6 m/s 4.5 mm 19.5° 1008.5 hPa 1.2 m/s 5.4 mm 18.7° 1010.4 hPa 2.5 m/s
14:00 21.0° 1007.9 hPa 3.3 m/s 8.3 mm 24.2° 1007.0 hPa 5.4 m/s 4.6 mm 20.2° 1008.1 hPa 2.7 m/s 10.1 mm 19.7° 1010.2 hPa 1.5 m/s
17:00 21.5° 1007.9 hPa 4.0 m/s 2.6 mm 24.1° 1007.4 hPa 6.2 m/s 4.7 mm 20.9° 1008.1 hPa 3.5 m/s 1.5 mm 23.6° 1009.2 hPa 0.4 m/s
20:00 19.8° 1008.3 hPa 3.2 m/s 0.6 mm 21.8° 1007.5 hPa 3.9 m/s 4.7 mm 19.3° 1008.5 hPa 3.0 m/s 0.1 mm 20.1° 1008.8 hPa 1.9 m/s
23:00 17.3° 1009.5 hPa 2.7 m/s 0.0 mm 17.6° 1008.4 hPa 3.3 m/s 4.7 mm 17.2° 1009.8 hPa 2.6 m/s 0.0 mm 17.2° 1009.5 hPa 2.2 m/s
 04:53     21:28    Daglengte: 16:35 Woensdag 28 Jul
02:00 16.4° 1009.9 hPa 2.8 m/s 0.0 mm 16.0° 1008.2 hPa 3.0 m/s 4.7 mm 16.5° 1010.3 hPa 2.7 m/s 0.0 mm 15.7° 1009.1 hPa 2.2 m/s
05:00 15.0° 1008.4 hPa 2.2 m/s 30.1 mm 15.0° 1008.4 hPa 2.2 m/s 30.1 mm
08:00 17.9° 1008.1 hPa 2.7 m/s 30.1 mm 17.9° 1008.1 hPa 2.7 m/s 30.1 mm
11:00 22.4° 1007.2 hPa 2.7 m/s 30.1 mm 22.4° 1007.2 hPa 2.7 m/s 30.1 mm
14:00 23.2° 1006.3 hPa 4.1 m/s 30.3 mm 23.2° 1006.3 hPa 4.1 m/s 30.3 mm
17:00 18.6° 1006.6 hPa 3.5 m/s 31.7 mm 18.6° 1006.6 hPa 3.5 m/s 31.7 mm
20:00 18.5° 1005.9 hPa 3.6 m/s 32.4 mm 18.5° 1005.9 hPa 3.6 m/s 32.4 mm
23:00 16.0° 1006.4 hPa 4.2 m/s 32.4 mm 16.0° 1006.4 hPa 4.2 m/s 32.4 mm
 04:55     21:26    Daglengte: 16:31 Donderdag 29 Jul
02:00 15.4° 1006.4 hPa 4.6 m/s 32.4 mm 15.4° 1006.4 hPa 4.6 m/s 32.4 mm
05:00 15.4° 1006.5 hPa 5.3 m/s 32.5 mm 15.4° 1006.5 hPa 5.3 m/s 32.5 mm
08:00 15.6° 1006.7 hPa 5.1 m/s 32.5 mm 15.6° 1006.7 hPa 5.1 m/s 32.5 mm
11:00 19.8° 1006.7 hPa 6.0 m/s 32.5 mm 19.8° 1006.7 hPa 6.0 m/s 32.5 mm
14:00 22.4° 1005.7 hPa 6.0 m/s 32.5 mm 22.4° 1005.7 hPa 6.0 m/s 32.5 mm
17:00 21.2° 1005.6 hPa 6.3 m/s 32.5 mm 21.2° 1005.6 hPa 6.3 m/s 32.5 mm
20:00 19.1° 1004.9 hPa 4.3 m/s 32.5 mm 19.1° 1004.9 hPa 4.3 m/s 32.5 mm
23:00 15.6° 1004.4 hPa 3.8 m/s 32.5 mm 15.6° 1004.4 hPa 3.8 m/s 32.5 mm
 04:57     21:24    Daglengte: 16:27 Vrijdag 30 Jul
02:00 15.3° 1002.9 hPa 4.0 m/s 32.5 mm 15.3° 1002.9 hPa 4.0 m/s 32.5 mm
05:00 15.3° 1000.8 hPa 5.2 m/s 32.8 mm 15.3° 1000.8 hPa 5.2 m/s 32.8 mm
08:00 15.4° 1000.8 hPa 6.5 m/s 34.2 mm 15.4° 1000.8 hPa 6.5 m/s 34.2 mm
11:00 18.6° 1000.4 hPa 7.7 m/s 34.3 mm 18.6° 1000.4 hPa 7.7 m/s 34.3 mm
14:00 19.1° 1000.4 hPa 8.8 m/s 34.4 mm 19.1° 1000.4 hPa 8.8 m/s 34.4 mm
17:00 18.4° 1000.3 hPa 7.9 m/s 34.9 mm 18.4° 1000.3 hPa 7.9 m/s 34.9 mm
20:00 16.5° 999.6 hPa 6.3 m/s 35.2 mm 16.5° 999.6 hPa 6.3 m/s 35.2 mm
23:00 14.2° 999.1 hPa 6.0 m/s 35.5 mm 14.2° 999.1 hPa 6.0 m/s 35.5 mm
 04:59     21:21    Daglengte: 16:22 Zaterdag 31 Jul
02:00 13.0° 999.1 hPa 6.5 m/s 35.7 mm 13.0° 999.1 hPa 6.5 m/s 35.7 mm
05:00 14.1° 999.0 hPa 7.0 m/s 35.7 mm 14.1° 999.0 hPa 7.0 m/s 35.7 mm
08:00 15.3° 999.6 hPa 6.2 m/s 35.8 mm 15.3° 999.6 hPa 6.2 m/s 35.8 mm
11:00 17.7° 1000.4 hPa 6.4 m/s 36.1 mm 17.7° 1000.4 hPa 6.4 m/s 36.1 mm
14:00 20.4° 1000.1 hPa 5.6 m/s 36.1 mm 20.4° 1000.1 hPa 5.6 m/s 36.1 mm
17:00 19.9° 1000.0 hPa 4.2 m/s 36.1 mm 19.9° 1000.0 hPa 4.2 m/s 36.1 mm
20:00 15.3° 1000.3 hPa 4.5 m/s 37.0 mm 15.3° 1000.3 hPa 4.5 m/s 37.0 mm
23:00 13.8° 1000.5 hPa 3.8 m/s 41.2 mm 13.8° 1000.5 hPa 3.8 m/s 41.2 mm
 05:01     21:19    Daglengte: 16:18 Zondag 01 Aug
02:00 12.6° 1001.1 hPa 2.9 m/s 42.6 mm 12.6° 1001.1 hPa 2.9 m/s 42.6 mm
05:00 11.2° 1001.7 hPa 3.0 m/s 42.6 mm 11.2° 1001.7 hPa 3.0 m/s 42.6 mm
08:00 13.6° 1002.4 hPa 4.0 m/s 42.6 mm 13.6° 1002.4 hPa 4.0 m/s 42.6 mm
14:00 19.1° 1003.2 hPa 6.0 m/s 43.1 mm 19.1° 1003.2 hPa 6.0 m/s 43.1 mm
20:00 16.0° 1005.1 hPa 5.7 m/s 43.2 mm 16.0° 1005.1 hPa 5.7 m/s 43.2 mm
 05:03     21:17    Daglengte: 16:14 Maandag 02 Aug
02:00 13.5° 1007.0 hPa 4.0 m/s 43.2 mm 13.5° 1007.0 hPa 4.0 m/s 43.2 mm
08:00 14.4° 1008.0 hPa 3.4 m/s 43.2 mm 14.4° 1008.0 hPa 3.4 m/s 43.2 mm
14:00 18.8° 1008.1 hPa 1.4 m/s 43.2 mm 18.8° 1008.1 hPa 1.4 m/s 43.2 mm
20:00 14.7° 1009.3 hPa 2.2 m/s 45.1 mm 14.7° 1009.3 hPa 2.3 m/s 45.1 mm
 05:05     21:15    Daglengte: 16:10 Dinsdag 03 Aug
02:00 12.5° 1010.9 hPa 1.0 m/s 46.1 mm 12.5° 1010.9 hPa 1.0 m/s 46.1 mm
14:00 19.6° 1013.0 hPa 3.1 m/s 47.0 mm 19.6° 1013.0 hPa 3.1 m/s 47.0 mm
20:00 17.6° 1013.2 hPa 1.4 m/s 47.0 mm 17.6° 1013.2 hPa 1.4 m/s 47.0 mm
 05:07     21:13    Daglengte: 16:06 Woensdag 04 Aug
02:00 11.7° 1005.7 hPa 0.8 m/s 0.7 mm
08:00 14.4° 1006.0 hPa 0.8 m/s 0.5 mm
14:00 19.5° 1006.0 hPa 1.2 m/s 1.3 mm
20:00 16.7° 1006.7 hPa 1.0 m/s 1.9 mm
 05:10     21:10    Daglengte: 16:00 Donderdag 05 Aug
02:00 11.9° 1008.1 hPa 0.8 m/s 0.2 mm
08:00 14.8° 1008.5 hPa 0.7 m/s 0.3 mm
14:00 20.1° 1008.5 hPa 1.4 m/s 1.3 mm
20:00 17.3° 1008.8 hPa 1.1 m/s 1.2 mm
 05:12     21:08    Daglengte: 15:56 Vrijdag 06 Aug
02:00 12.0° 1009.8 hPa 1.0 m/s 0.1 mm
08:00 14.9° 1010.0 hPa 1.3 m/s 0.3 mm
14:00 20.5° 1009.5 hPa 2.3 m/s 1.4 mm
20:00 17.2° 1009.5 hPa 1.6 m/s 1.9 mm
 05:14     21:06    Daglengte: 15:52 Zaterdag 07 Aug
02:00 12.5° 1010.1 hPa 1.4 m/s 0.3 mm
08:00 14.9° 1009.7 hPa 1.2 m/s 0.7 mm
14:00 20.1° 1009.1 hPa 1.6 m/s 1.6 mm
20:00 17.4° 1008.8 hPa 0.9 m/s 1.6 mm
 05:16     21:03    Daglengte: 15:47 Zondag 08 Aug
02:00 13.4° 1009.0 hPa 0.6 m/s 0.5 mm
08:00 15.4° 1008.7 hPa 1.0 m/s 1.4 mm
14:00 20.7° 1008.6 hPa 2.1 m/s 1.8 mm
20:00 17.5° 1008.7 hPa 1.4 m/s 1.9 mm
 05:18     21:01    Daglengte: 15:43 Maandag 09 Aug
02:00 13.6° 1009.2 hPa 1.7 m/s 0.6 mm
08:00 15.1° 1009.1 hPa 1.8 m/s 1.3 mm
FMI Hirlam - 7.5 km EWN WRFDA - 12 km DWD ICON - 7 km GFS - 25 km Basiskaart






























































Updatetijd (Europe/Amsterdam) Resolutie Lengte Stap
FMI Hirlam 02:00, 08:00, 14:00, 20:00 7.5 km 49h 1h
EWN WRFDA 22:15, 04:15, 10:15, 16:15 12 km 73h 1h
DWD ICON 23:45, 05:45, 11:45, 17:45 7 km 75h 1h
GFS 02:15, 08:15, 14:15, 20:15 25 km 237h 3h
30+ mm
25-30 mm
20-25 mm
15-20 mm
10-15 mm
6-10 mm
4-6 mm
2-4 mm
1-2 mm
0.5-1 mm
0.2-0.5 mm
0.1-0.2 mm
30+ mm
25-30 mm
20-25 mm
15-20 mm
10-15 mm
6-10 mm
4-6 mm
2-4 mm
1-2 mm
0.5-1 mm
0.2-0.5 mm
0.1-0.2 mm
Sneeuwval
Natte sneeuw
Hagel
Vorst
30+ mm
25-30 mm
20-25 mm
15-20 mm
10-15 mm
6-10 mm
4-6 mm
2-4 mm
1-2 mm
0.5-1 mm
0.2-0.5 mm
0.1-0.2 mm
Sneeuwval
Natte sneeuw
Hagel
Vorst
Onweer
50 mm
40 mm
30 mm
26 mm
22 mm
18 mm
14 mm
10 mm
9 mm
8 mm
7 mm
6 mm
5 mm
4.5 mm
4 mm
3.5 mm
3 mm
2.5 mm
2 mm
1.5 mm
1 mm
0.8 mm
0.6 mm
0.4 mm
0.2 mm
0.05 mm
35°
30°
25°
20°
15°
10°
-5°
-10°
-15°
-20°
-25°
-30°
-35°
33> m/s
29 m/s
25 m/s
21 m/s
17 m/s
14 m/s
11 m/s
8 m/s
5 m/s
3 m/s
0 m/s
2600 J/kg
2400 J/kg
2200 J/kg
2000 J/kg
1800 J/kg
1600 J/kg
1400 J/kg
1200 J/kg
1000 J/kg
800 J/kg
600 J/kg
400 J/kg
200 J/kg
70 dBZ
65 dBZ
60 dBZ
55 dBZ
50 dBZ
45 dBZ
40 dBZ
35 dBZ
30 dBZ
25 dBZ
20 dBZ
15 dBZ
10 dBZ
5 dBZ
-1 K
-2 K
-3 K
-4 K
-5 K
-6 K
-7 K
-8 K
-9 K
950 m²/s²
900 m²/s²
850 m²/s²
800 m²/s²
750 m²/s²
700 m²/s²
650 m²/s²
600 m²/s²
550 m²/s²
500 m²/s²
450 m²/s²
400 m²/s²
350 m²/s²
300 m²/s²
250 m²/s²
200 m²/s²
150 m²/s²
100 m²/s²
46 m/s
44 m/s
42 m/s
40 m/s
38 m/s
36 m/s
34 m/s
32 m/s
30 m/s
28 m/s
26 m/s
24 m/s
22 m/s
20 m/s
16 m/s
12 m/s
8 m/s
4 m/s
30 m/s
28 m/s
26 m/s
24 m/s
22 m/s
20 m/s
18 m/s
16 m/s
14 m/s
12 m/s
10 m/s
8 m/s
6 m/s
4 m/s
2 m/s
3.0
2.8
2.6
2.4
2.2
2.0
1.8
1.6
1.4
1.2
1.0
0.8
0.6
0.4
0.2
15
14
13
12
11
10
9
8
7
6
5
4
3
2
1
90%
80%
70%
60%
50%
40%
30%
20%
10%
42
40
38
36
34
32
30
28
26
24
22
20
18
16
14
12
90+ cm
80-90 cm
70-80 cm
60-70 cm
50-60 cm
40-50 cm
30-40 cm
20-30 cm
10-20 cm
1-10 cm
Sneeuwval
Natte sneeuw
Regen
>120 mm
115 mm
110 mm
105 mm
100 mm
95 mm
90 mm
85 mm
80 mm
75 mm
70 mm
65 mm
60 mm
55 mm
50 mm
45 mm
45 mm
40 mm
35 mm
30 mm
25 mm
20 mm
15 mm
10 mm
5 mm
0.1 mm
960 hPa
880 hPa
800 hPa
720 hPa
640 hPa
560 hPa
584 gpdm
568 gpdm
552 gpdm